Вернуться в каталог

SL-8 DEB

АктивенLEO
NORAD 21172·DEBRIS·🇷🇺 Russia

Запущен Feb 12, 1991 с Plesetsk Cosmodrome

Loading…

Ближайшие Пролёты (ближайшие 24 часа)

TLE

СвежийSource: Space-Track

Эпоха: Sep 14, 2026, 12:57 UTC

1 21172U 91009AK  26257.53966620 -.00000015  00000-0  34396-5 0  9998
2 21172  74.0352 189.6504 0134036 236.2493 237.6646 12.27725885592215

Отслеживайте SL-8 DEB в реальном времени с AllMySat

Download on the App Store